Etusivu
METAR-TAF:

METAR-TAF

Lentoasemat :

Ontario Municipal Airport

Ontario, Oregon, Yhdysvallat

Leveyspiiri: 44-01-10N, Pituuspiiri: 117-00-35W, korkeus merenpinnasta: 667 m

Tämänhetkinen sää

Tämä raportti tehtiin 7 minuuttia sitten, kello 02.53 UTC
Tuuli 5 kn lännestä
Lämpötila 0°C
Kosteus 59%
Ilmanpaine 1026 hPa
Näkyvyys: 16.1 km
selkeää

METAR: KONO 230253Z AUTO 27005KT 10SM CLR 00/M07 A3031 RMK AO2 SLP290 T00001067 53013

Aika: 20:00 (03:00 UTC)


TAF: puuttuu

Säähavainnot ja -ennusteet yli 4000 lentoasemalta (METAR- ja TAF-raportit).

Käytössä olevat sääasemat on merkitty karttaan keltaisilla ja punaisilla pisteillä.

Aseta hiiri pisteen päälle nähdäksesi sääaseman nimen.

Klikkaa sitten nähdäksesi säähavainnot ja -ennusteet.

Kartan vaihtaminen: klikkaa mustalla rastilla varustettuja vihreitä pisteitä, niin voit zoomata sisään; viivalla varustettua vihreää pistettä, niin voit zoomata ulos tai vihreitä nuolia, niin pääset viereisille kartoille.


METAR-TAF: